Tracking 30261 objects as of 18-Feb-2025
HD Live streaming from Space Station
objects crossing your sky now

SL-8 R/B

Track SL-8 R/B now!
10-day predictions


NORAD ID: 15752
Int'l Code: 1985-041B
Perigee: 978.3 km
Apogee: 1,011.6 km
Inclination: 82.9 °
Period: 104.9 minutes
Semi major axis: 7365 km
RCS: 4.952 m2 (large)
Launch date: May 30, 1985
Source: Commonwealth of Independent States (former USSR) (CIS)
Launch site: PLESETSK MISSILE AND SPACE COMPLEX (PKMTR)

Note: This is a ROCKET BODY
Your satellite tracking list
Your tracking list is empty




NASA's NSSDC Master Catalog

Two Line Element Set (TLE):
1 15752U 85041B   25048.94205286  .00000055  00000-0  43196-4 0  9990
2 15752  82.9487  38.9545 0022589 254.3854 105.4809 13.73286907990259
Source of the keplerian elements: AFSPC